Regional Weather Roundup
Issued by NWS

Current Version | Previous Version | Text Only | Print | Product List | Glossary On
Versions: 1 2 3 4 5 6 7 8 9 10 11 12 13 14 15 16 17 18 19 20 21 22 23 24 25 26 27 28 29 30 31 32 33 34 35 36 37 38 39 40 41 42 43 44 45 46 47 48 49 50
000
ASUS43 KIND 050409
RWRIN

WEATHER ROUNDUP FOR INDIANA
NATIONAL WEATHER SERVICE INDIANAPOLIS IN
1100 PM EST THU MAR 04 2021

NOTE: "FAIR" INDICATES FEW OR NO CLOUDS BELOW 12,000 FEET WITH NO
SIGNIFICANT WEATHER AND/OR OBSTRUCTIONS TO VISIBILITY.

* - STATION DOES NOT REPORT WEATHER SUCH AS PRECIPITATION OR FOG.

+ - STATION NOT QUALITY CONTROLLED BY THE NATIONAL WEATHER SERVICE.
    USE DATA WITH CAUTION...ESPECIALLY DEWPOINT AND RELATIVE
    HUMIDITY OBSERVATIONS.

INZ001>003-010>013-019-020-050500-
NORTHWEST INDIANA

CITY           SKY/WX    TMP DP  RH WIND       PRES   REMARKS
GARY /AIRPORT/ CLEAR     30  23  74 NE14      30.37S WCI  20
KNOX *+        CLEAR     27  23  86 N5        30.34S WCI  21
LA PORTE +     CLEAR     27  23  82 N7        30.34S WCI  20
MICHIGAN CITY+ CLEAR     30  23  74 N8        30.36S WCI  23
MONTICELLO +   CLEAR     28  22  78 N10       30.32S WCI  19
RENSSELAER +   CLEAR     27  23  86 N7        30.34S WCI  19
VALPARAISO     CLEAR     27  22  81 N6        30.34S WCI  20

$$

LMZ046-743>745-050500-
SOUTHERN LAKE MICHIGAN

STATION/POSITION TIME  TEMP    WIND        PRES    WAVE
                       AIR SEA DIR/SP/G            HT
                 (UTC) (F)     (DEG/KT/KT) (MB)    (FT)
BURNS HARBOR     0340   32      20/  9/ 11 1028.1S
MICHIGAN CITY    0340   32      20/ 17/ 18   N/A

$$

INZ004-005-014>016-021>024-050500-
NORTH CENTRAL INDIANA

CITY           SKY/WX    TMP DP  RH WIND       PRES   REMARKS
GOSHEN         CLEAR     26  19  74 N7        30.32S WCI  18
LOGANSPORT +   CLEAR     28  23  80 N8        30.33S WCI  20
PERU/GRISSOM   CLEAR     28  27  95 N7        30.30S WCI  21
PLYMOUTH *+    CLEAR     27  21  80 N6        30.32S WCI  20
ROCHESTER +    CLEAR     30  23  74 N5        30.33S WCI  25
SOUTH BEND     CLEAR     25  19  78 N7        30.34S WCI  17
WARSAW +       CLEAR     28  21  74 N5        30.32S WCI  23

$$

INZ006>009-017-018-025>027-050500-
NORTHEAST INDIANA

CITY           SKY/WX    TMP DP  RH WIND       PRES   REMARKS
ANGOLA *+      CLEAR     21  16  79 CALM      30.30S
AUBURN +       CLEAR     27  18  69 CALM      30.31F
FORT WAYNE     CLEAR     27  16  63 NE5       30.30F WCI  22
HUNTINGTON +   CLEAR     28  16  60 N3        30.31S
KENDALLVILLE + FAIR      24  20  84 CALM      30.30S

$$

INZ028-029-035-036-043>045-051>053-050500-
WEST CENTRAL INDIANA

CITY           SKY/WX    TMP DP  RH WIND       PRES   REMARKS
CRAWFORDSVL +  CLEAR     27  22  84 N8        30.30S WCI  18
GREENCASTLE +  FAIR      30  25  81 N8        30.29S WCI  23
LAFAYETTE      CLEAR     33  23  66 NE8       30.32S WCI  26
TERRE HAUTE    CLEAR     34  25  69 N13       30.30R WCI  25

$$

INZ030>032-037>040-046>048-054>057-064-065-050500-
CENTRAL INDIANA

CITY           SKY/WX    TMP DP  RH WIND       PRES   REMARKS
ANDERSON +     CLEAR     30  21  70 CALM      30.29S
FRANKFORT +    MOCLDY    28  25  86 N7G13     30.30S WCI  21
GREENWOOD *+   CLEAR     32  23  69 NE7       30.28S WCI  26
INDIANAPOLIS   CLEAR     32  24  72 N10       30.29R WCI  24
-EAGLE CREEK   CLEAR     30  23  75 N7        30.28S WCI  23
KOKOMO +       CLEAR     29  25  85 N9        30.31S WCI  20
MARION +       CLEAR     29  25  86 CALM      30.31S
MT COMFORT *+  CLEAR     27  27 100 CALM      30.29R
SHELBYVILLE    CLEAR     33  23  66 NE5       30.27S WCI  29

$$

INZ033-034-041-042-049-050-058-059-050500-
EAST CENTRAL INDIANA

CITY           SKY/WX    TMP DP  RH WIND       PRES   REMARKS
MUNCIE         CLEAR     30  21  69 NE5       30.28S WCI  25
PORTLAND +     FAIR      28  19  69 CALM      30.28F
RICHMOND +     FAIR      27  23  86 NE7       30.27S WCI  19

$$

INZ060-061-067>069-081>083-085>088-050500-
SOUTHWEST INDIANA

CITY           SKY/WX    TMP DP  RH WIND       PRES   REMARKS
EVANSVILLE     CLEAR     42  27  55 NE7       30.24R
HUNTINGBURG +  CLEAR     41  25  53 N7        30.24R
WASHINGTON +   CLEAR     38  28  65 N9        30.26R WCI  32

$$

INZ062-063-066-070>080-084-089>092-050500-
SOUTH CENTRAL AND SOUTHEAST INDIANA

CITY           SKY/WX    TMP DP  RH WIND       PRES   REMARKS
BATESVILLE +   CLEAR     28  25  86 NE5       30.27R WCI  23
BLOOMINGTON    CLEAR     34  25  69 N8        30.26R WCI  27
JEFFERSONVL +  FAIR      39  27  61 NE6       30.25R WCI  35
MADISON *+     CLEAR     32  28  86 NE7       30.28R WCI  26

$$




USA.gov is the U.S. government's official web portal to all federal, state and local government web resources and services.